Naples Municipal Airport Naples US
ICAO: KAPF
IATA: APF
Category: Medium
Scheduled Services: No

Elevation: 8 ft
TransAlt. 18000 ft.

Airport Communications:
FORT MYERS APP/DEP:119.75
ATIS:134.225
CLNC DEL:118
CTAF:128.5
GND:121.6
MIAMI RDO:123.6
TWR:128.5

KAPF Zoom In..

If you have problems with the map follow the link
https://www.worldairports.se/pages/airport.php?
ICAO=KAPF

Runways:

(A) RW 05 length 6600 ft width 150 ft
---- / hdg 47

(B) RW 14 length 5000 ft width 100 ft
---- / hdg 137

(C) RW 23 length 6600 ft width 150 ft
---- / hdg 227

(D) RW 32 length 5000 ft width 100 ft
---- / hdg 317

Location; KAPF
Day. 16 / Time. 10.53 Zulu
* Altimeter: 30.07
* Temperature: 14° c. 57.2°f.
* Wind from: 020° Speed 07 kn.
Dewpoint: 11° c.
Visibility: 10 Statute Miles.
Clouds: Clear (automated report).

KAPF 161053Z 02007KT 10SM CLR 14/11 A3007 RMK AO2 SLP181 T01440111


Wind From 020°
Speed 07 kn.

 
 
jpsmedia.com for Web Design worldairports.se 2018   terms of use